Powrót do katalogu

STARLINK-31066

AktywnyŁącznośćVLEO
NORAD 58676·PAYLOAD·🇺🇸 United States

Wystrzelony Dec 29, 2023 z Cape Canaveral Space Force Station

Loading…

Następne Przeloty (najbliższe 24 godziny)

TLE

ŚwieżeSource: CelesTrak SupGP

Epoka: Sep 14, 2026, 21:51 UTC

1 58676C 23211K   26257.91090278  .00031998  00000+0  11591-2 0  2574
2 58676  43.0018 242.4360 0001322 259.0989 321.8135 15.27557970    13

Śledź STARLINK-31066 w czasie rzeczywistym z AllMySat

Download on the App Store